Meteo Giornale » Osservazioni meteo Italia » Rimini

ore: 06:20 - Osservazioni Meteo Rimini
Lat. 44° 2' N Lon. 12° 37' E Alt. 12 metri s.l.m.

poco_nuvoloso Europe/Rome

23 °C

Poco Nuvoloso

Temp. 24 Ore

21 °C

29 °C

Nord

5.5 Km/h

Dew point 20 °C

Umidità 83 %

Visibilità  10 Km

Il sole sorge alle ore 06:15

Il sole tramonta alle ore 20:11

Data e Ora Cielo e Fenomeni T °C DP °C Um. % Pres. hPa Vis. km Vento km/h
Oggi h: 06:20 poco_nuvoloso Poco Nuvoloso 23 20 83 1010 10 N 5.5
Oggi h: 05:50 sereno Sereno 23 20 83 1009 10 N 3.7
Oggi h: 05:20 poco_nuvoloso Poco Nuvoloso 23 20 83 1009 10 N 3.7
Oggi h: 04:50 nuvoloso Nuvoloso 24 20 78 1011 10 S/SO 7.4
Oggi h: 04:20 sereno Sereno 24 20 78 1010 10 N 5.5
Oggi h: 03:50 poco_nuvoloso Poco Nuvoloso 24 20 78 1011 10 N 5.5
Oggi h: 03:20 molto_nuvoloso Molto Nuvoloso 24 20 78 1011 10 O/NO 9.3
Oggi h: 02:50 sereno Sereno 24 21 83 1011 10 O/NO 11.1
Oggi h: 02:20 sereno Sereno 24 21 83 1011 10 O/NO 11.1
Oggi h: 01:50 sereno Sereno 24 21 83 1011 10 O/NO 11.1
Oggi h: 01:20 nuvoloso Nuvoloso 25 21 78 1011 10 O/NO 7.4
Oggi h: 00:50 poco_nuvoloso Poco Nuvoloso 25 21 78 1011 10 O 9.3
Oggi h: 00:20 poco_nuvoloso Poco Nuvoloso 26 21 73 1011 10 O 11.1
Ieri h: 23:50 poco_nuvoloso Poco Nuvoloso 26 21 73 1012 10 O 16.7
Ieri h: 23:20 sereno Sereno 27 23 78 1012 10 O 14.8
Ieri h: 22:50 sereno Sereno 27 22 74 1012 10 O/NO 18.5
Ieri h: 22:20 molto_nuvoloso Molto Nuvoloso 27 24 83 1011 10 S 7.4
Ieri h: 21:50 molto_nuvoloso Molto Nuvoloso 27 24 83 1011 10 E/SE 7.4
Ieri h: 21:20 nuvoloso Nuvoloso 28 25 83 1011 10 E 11.1
Ieri h: 20:50 sereno Sereno 28 23 74 1011 10 E 7.4
Ieri h: 20:20 sereno Sereno 28 23 74 1010 10 E/SE 11.1
Ieri h: 19:50 sereno Sereno 28 24 78 1010 10 E 13
Ieri h: 19:20 sereno Sereno 29 22 66 1011 10 E/SE 14.8
Ieri h: 18:50 sereno Sereno 29 21 62 1011 10 E/SE 16.7
Ieri h: 18:20 sereno Sereno 29 22 66 1011 10 E 18.5
Ieri h: 17:50 sereno Sereno 28 23 74 1012 10 E 20.3
Ieri h: 17:20 sereno Sereno 28 24 78 1011 10 E/SE 18.5
Ieri h: 16:50 sereno Sereno 28 24 78 1012 10 E 18.5
Ieri h: 16:20 sereno Sereno 29 24 74 1012 10 E 16.7
Ieri h: 15:50 sereno Sereno 29 23 70 1012 10 E 14.8
Ieri h: 15:20 sereno Sereno 29 24 74 1012 10 E 14.8
Ieri h: 14:50 sereno Sereno 29 22 66 1012 10 E 14.8
Ieri h: 14:20 sereno Sereno 29 22 66 1012 10 E 14.8
Ieri h: 13:50 sereno Sereno 28 23 74 1012 10 E/NE 16.7
Ieri h: 13:20 sereno Sereno 28 23 74 1012 10 E/NE 14.8
Ieri h: 12:50 sereno Sereno 29 21 62 1012 10 E/NE 14.8
Ieri h: 12:20 sereno Sereno 29 21 62 1012 10 NE 13
Ieri h: 11:50 sereno Sereno 29 19 54 1012 10 NE 13
Ieri h: 11:20 sereno Sereno 28 20 61 1013 10 N/NE 13
Ieri h: 10:50 sereno Sereno 28 20 61 1012 10 N/NE 11.1
Ieri h: 10:20 sereno Sereno 28 20 61 1012 10 N/NE 13
Ieri h: 09:50 sereno Sereno 28 20 61 1012 10 N/NE 11.1
Ieri h: 09:20 sereno Sereno 29 19 54 1012 10 N 3.7
Ieri h: 08:50 sereno Sereno 27 19 61 1012 10 N 5.5
Ieri h: 08:20 sereno Sereno 25 18 65 1012 10 N 5.5
Ieri h: 07:50 sereno Sereno 24 19 73 1012 10 N 3.7
Ieri h: 07:20 sereno Sereno 22 18 78 1012 10 N 3.7
Ieri h: 06:50 sereno Sereno 21 18 82 1012 10 SO 9.3